World > North America > United States > Mississippi

Schlater, Mississippi Regional Weather

Lat: 33.64N, Lon: 90.35W
Wx Zone: MSZ025Web Search

Helpful Tip: You can add this page to Bookmarks by pressing the Ctrl key & d key at the same time. Mac users press command & d.

Feedback


°F Click to change Schlater hourly weather to Imperial units.Click to change Schlater hourly weather to Metric units. °C
Schlater Weather Map
UTC Time: 4/15/2021, 13:34
Your Time:

Schlater, MS Regional Weather

Expires:202104151400;;590366
ASUS44 KJAN 151310
RWRMS 

MISSISSIPPI HOURLY WEATHER ROUNDUP
NATIONAL WEATHER SERVICE JACKSON MS
800 AM CDT THU APR 15 2021

NOTE: "FAIR: INDICATES FEW OR NO CLOUDS BELOW 12,000 FEET WITH NO
SIGNIFICANT WEATHER AND/OR OBSTRUCTIONS TO VISIBILITY.


MSZ001>002-007>008-010>013-018>021-025>028-034>036-151400-
NORTHWEST MISSISSIPPI
  
CITY           SKY/WX    TMP DP  RH WIND       PRES   REMARKS
BATESVILLE     FAIR      54  52  94 CALM      30.06R                  
CLARKSDALE       N/A     55  54  94 N15       30.07R                  
CLEVELAND      FAIR      55  51  86 N7        30.05S                  
GREENWOOD      SUNNY     58  51  78 N9        30.02F                  
GREENVILLE     SUNNY     57  50  77 N10       30.03S                  
OLIVE BRANCH   SUNNY     54  46  76 N12       30.06S                  
OXFORD         SUNNY     52  50  93 N3        30.07R                  
TUNICA         SUNNY     54  46  76 N15       30.07R                  
WINONA         FAIR      55  52  87 N9        30.01F                  
$$


SKY/WX - Weather  TMP - Temperature  DP - Dew Point  RH - Relative Humidity
WIND - Wind Direction/Speed PRES - Barometric Pressure VSB - Visibility
WCI - Wind Chill Index E13G22 Wind - East Wind 13 mph/Gusts of 22 mph